Change the Weather History Date:

Monday, March 18, 2013

  Actual Average Record
Temperature  
Mean Temperature 41 °F 43 °F  
Max Temperature 46 °F 53 °F 82 °F (2012)
Min Temperature 35 °F 33 °F 23 °F (2007)
Degree Days  
Heating Degree Days 24 22  
Month to date heating degree days 489 464  
Since 1 July heating degree days 4291 4627  
Cooling Degree Days 0 0  
Month to date cooling degree days 0 0  
Year to date cooling degree days 0 0  
Moisture  
Dew Point 35 °F    
Average Humidity 86    
Maximum Humidity 92    
Minimum Humidity 79    
Precipitation  
Precipitation 0.60 in 0.12 in 1.45 in (2008)
Month to date precipitation 0.94 1.71  
Year to date precipitation 6.14 6.46  
Sea Level Pressure  
Sea Level Pressure 29.71 in    
Wind  
Wind Speed 13 mph (SSE)    
Max Wind Speed 23 mph    
Max Gust Speed 30 mph    
Visibility 6 miles    
Events Rain    
T = Trace of Precipitation, MM = Missing Value Source: NWS Daily Summary

Daily Weather History Graph

Daily Weather History Graph

Search for Another Location

Airport or City:

Trip Planner

Search our weather history database for the weather conditions in past years. The results will help you decide how hot, cold, wet, or windy it might be!

Date:

Astronomy

Mar. 18, 2013 Rise Set
Actual Time 7:49 AM EDT 7:53 PM EDT
Civil Twilight 7:22 AM EDT 8:20 PM EDT
Nautical Twilight 6:51 AM EDT 8:51 PM EDT
Astronomical Twilight 6:19 AM EDT 9:23 PM EDT
Moon 11:49 AM EDT (3/18) 1:51 AM EDT (3/18)
Length of Visible Light 12h 57m
Length of Day
12h 04m
Waxing Crescent, 40% of the Moon is Illuminated
Mar 18
Waxing Crescent
Mar 19
First Quarter
Mar 27
Full
Apr 3
Last Quarter
Apr 10
New

Hourly Weather History & Observations

Time (EDT) Temp. Windchill Dew Point Humidity Pressure Visibility Wind Dir Wind Speed Gust Speed Precip Events Conditions
12:53 AM 35.1 °F 27.4 °F 30.0 °F 82% 29.94 in 5.0 mi East 10.4 mph - 0.03 in Rain Rain
1:53 AM 35.1 °F 25.5 °F 30.9 °F 85% 29.89 in 4.0 mi ENE 15.0 mph - 0.31 in Rain Rain
2:16 AM 35.6 °F 25.5 °F 30.2 °F 81% 29.86 in 4.0 mi East 17.3 mph - 0.07 in Rain Rain
2:38 AM 35.6 °F 25.9 °F 30.2 °F 81% 29.85 in 5.0 mi East 16.1 mph 21.9 mph 0.11 in Rain Light Rain
2:45 AM 35.6 °F 24.8 °F 30.2 °F 81% 29.83 in 5.0 mi East 19.6 mph 26.5 mph 0.12 in Rain Rain
2:53 AM 35.1 °F 23.3 °F 30.9 °F 85% 29.84 in 5.0 mi East 23.0 mph 28.8 mph 0.14 in Rain Rain
3:20 AM 35.6 °F 24.8 °F 30.2 °F 81% 29.80 in 5.0 mi East 19.6 mph - 0.05 in Rain Rain
3:53 AM 35.1 °F 24.8 °F 32.0 °F 89% 29.79 in 5.0 mi ESE 17.3 mph 29.9 mph 0.12 in Rain Rain
4:33 AM 35.6 °F 25.5 °F 32.0 °F 87% 29.74 in 6.0 mi East 17.3 mph - 0.02 in Rain Light Rain
4:53 AM 36.0 °F 25.6 °F 32.0 °F 86% 29.74 in 5.0 mi East 18.4 mph - 0.04 in Rain Rain
5:53 AM 36.0 °F 28.5 °F 33.1 °F 89% 29.76 in 9.0 mi ENE 10.4 mph - 0.01 in   Overcast
6:53 AM 36.0 °F 28.0 °F 33.1 °F 89% 29.72 in 10.0 mi East 11.5 mph - N/A   Overcast
7:39 AM 37.4 °F 28.9 °F 33.8 °F 87% 29.68 in 10.0 mi East 13.8 mph - N/A   Overcast
7:53 AM 37.0 °F 28.9 °F 33.1 °F 86% 29.69 in 10.0 mi East 12.7 mph - N/A   Overcast
8:29 AM 37.4 °F 28.9 °F 33.8 °F 87% 29.67 in 10.0 mi East 13.8 mph - N/A   Overcast
8:53 AM 37.0 °F 29.8 °F 33.1 °F 86% 29.67 in 10.0 mi East 10.4 mph - N/A   Overcast
9:42 AM 37.4 °F 30.8 °F 33.8 °F 87% 29.64 in 1.8 mi East 9.2 mph - 0.00 in   Overcast
9:50 AM 37.4 °F 31.4 °F 33.8 °F 87% 29.65 in 2.0 mi ESE 8.1 mph - 0.00 in   Overcast
9:53 AM 37.0 °F 31.0 °F 34.0 °F 89% 29.66 in 2.5 mi ESE 8.1 mph - 0.00 in   Overcast
10:04 AM 37.4 °F 31.4 °F 35.6 °F 93% 29.64 in 1.5 mi East 8.1 mph - N/A   Overcast
10:17 AM 37.4 °F 31.4 °F 35.6 °F 93% 29.63 in 2.0 mi ESE 8.1 mph - N/A   Overcast
10:26 AM 37.4 °F 30.3 °F 35.6 °F 93% 29.63 in 1.8 mi ESE 10.4 mph - N/A   Overcast
10:53 AM 37.9 °F 31.5 °F 36.0 °F 93% 29.65 in 1.8 mi SE 9.2 mph - N/A   Overcast
11:10 AM 39.2 °F 33.0 °F 35.6 °F 87% 29.62 in 2.0 mi SE 9.2 mph - N/A   Overcast
11:53 AM 39.9 °F 34.5 °F 37.0 °F 89% 29.63 in 2.5 mi SSE 8.1 mph - N/A   Overcast
12:35 PM 41.0 °F 35.2 °F 39.2 °F 93% 29.62 in 2.0 mi South 9.2 mph - N/A   Overcast
12:53 PM 42.1 °F 37.1 °F 39.0 °F 89% 29.64 in 2.0 mi South 8.1 mph - N/A   Overcast
1:06 PM 42.8 °F 36.6 °F 39.2 °F 87% 29.62 in 1.5 mi South 11.5 mph - N/A   Overcast
1:23 PM 42.8 °F 37.5 °F 39.2 °F 87% 29.62 in 2.5 mi South 9.2 mph - N/A   Overcast
1:31 PM 42.8 °F 37.5 °F 39.2 °F 87% 29.60 in 4.0 mi South 9.2 mph - N/A   Overcast
1:53 PM 45.0 °F 39.3 °F 42.1 °F 90% 29.60 in 6.0 mi SSW 11.5 mph - N/A   Overcast
2:05 PM 44.6 °F 38.4 °F 42.8 °F 93% 29.58 in 8.0 mi SSW 12.7 mph - N/A   Overcast
2:53 PM 46.0 °F 39.0 °F 42.1 °F 86% 29.62 in 10.0 mi WSW 17.3 mph 25.3 mph N/A   Overcast
3:53 PM 45.0 °F 38.5 °F 41.0 °F 86% 29.62 in 8.0 mi WSW 13.8 mph - N/A   Overcast
4:53 PM 44.1 °F 36.8 °F 39.9 °F 85% 29.64 in 9.0 mi WSW 16.1 mph - N/A   Overcast
5:48 PM 42.8 °F 34.5 °F 37.4 °F 81% 29.66 in 7.0 mi West 18.4 mph 26.5 mph N/A   Overcast
5:53 PM 43.0 °F 34.5 °F 37.9 °F 82% 29.68 in 5.0 mi West 19.6 mph 25.3 mph N/A   Haze
6:53 PM 42.1 °F 35.2 °F 37.0 °F 82% 29.72 in 9.0 mi West 12.7 mph - N/A   Overcast
7:51 PM 39.2 °F 31.2 °F 35.6 °F 87% 29.74 in 10.0 mi West 13.8 mph - N/A   Overcast
7:53 PM 39.9 °F 31.4 °F 35.1 °F 83% 29.76 in 10.0 mi West 16.1 mph - N/A   Overcast
8:12 PM 39.2 °F 30.5 °F 35.6 °F 87% 29.76 in 8.0 mi West 16.1 mph - N/A   Overcast
8:53 PM 39.0 °F 31.4 °F 36.0 °F 89% 29.78 in 9.0 mi West 12.7 mph - N/A   Overcast
9:53 PM 39.9 °F 32.5 °F 35.1 °F 83% 29.80 in 10.0 mi West 12.7 mph - N/A   Overcast
10:01 PM 39.2 °F 32.5 °F 35.6 °F 87% 29.79 in 10.0 mi West 10.4 mph - N/A   Overcast
10:53 PM 39.0 °F 32.8 °F 34.0 °F 82% 29.82 in 10.0 mi SW 9.2 mph - N/A   Overcast
11:53 PM 39.0 °F 31.8 °F 34.0 °F 82% 29.83 in 10.0 mi SW 11.5 mph - N/A   Overcast